EW9060 Weather Reports


time (UTC)temp
F
wind
direction
speed
knots
gust
knots
rain 1hr
in
rain 24hr
in
rain mn
in
humidity
%
barometer
mb
20260902194534 77 121 3.5 7.8 0.00 0.00 0.00 53 1018.1
20260902193027 75 169 2.6 9.6 0.00 0.00 0.00 55 1018.3
20260902191524 74 213 1.7 6.1 0.00 0.00 0.00 58 1018.5
20260902190025 73 244 0.0 3.5 0.00 0.00 0.00 59 1018.7
20260902184515 73 208 0.9 7.0 0.00 0.00 0.00 59 1018.7
20260902183012 72 258 1.7 6.1 0.00 0.00 0.00 60 1018.6
20260902181510 71 209 0.9 5.2 0.00 0.00 0.00 61 1018.6
20260902180007 70 140 0.9 3.5 0.00 0.00 0.00 63 1018.6
20260902174504 70 138 0.9 7.8 0.00 0.00 0.00 63 1018.7
20260902173001 69 175 0.0 6.1 0.00 0.00 0.00 64 1018.6
20260902171558 68 213 0.0 6.1 0.00 0.00 0.00 66 1018.5
20260902170055 67 200 0.0 4.3 0.00 0.00 0.00 68 1018.4
20260902164551 66 140 2.6 7.0 0.00 0.00 0.00 69 1018.3
20260902163050 66 250 0.0 6.1 0.00 0.00 0.00 71 1018.2
20260902161549 65 180 0.9 7.8 0.00 0.00 0.00 72 1018.1
20260902160145 65 158 1.7 7.0 0.00 0.00 0.00 74 1018.4
20260902154543 64 136 1.7 7.8 0.00 0.00 0.00 75 1018.3
20260902153041 63 168 0.9 6.1 0.00 0.00 0.00 77 1018.3
20260902151543 62 132 1.7 6.1 0.00 0.00 0.00 78 1018.2
20260902150034 61 140 1.7 4.3 0.00 0.00 0.00 79 1018.1
20260902144537 61 117 0.0 6.1 0.00 0.00 0.00 81 1017.9
20260902143034 61 92 0.9 4.3 0.00 0.00 0.00 81 1017.8
20260902141529 61 101 1.7 6.1 0.00 0.00 0.00 81 1017.5
20260902140028 60 103 0.9 6.1 0.00 0.00 0.00 82 1017.6
20260902134533 60 144 0.9 3.5 0.00 0.00 0.00 82 1017.6
20260902133026 60 127 0.9 3.5 0.00 0.00 0.00 82 1017.4
20260902131526 60 129 1.7 3.5 0.00 0.00 0.00 82 1017.3
20260902130034 60 138 0.9 5.2 0.00 0.00 0.00 82 1017.2
20260902124526 60 156 0.9 6.1 0.00 0.00 0.00 82 1017.2
20260902123021 60 99 0.9 4.3 0.00 0.00 0.00 83 1017.1
20260902121520 60 151 0.0 4.3 0.00 0.00 0.00 83 1017.1
20260902120019 60 146 0.0 4.3 0.00 0.00 0.00 83 1017.1
20260902114518 60 160 0.9 4.3 0.00 0.00 0.00 83 1017.0
20260902113018 60 169 0.9 5.2 0.00 0.00 0.00 83 1017.0
20260902111517 61 171 1.7 4.3 0.00 0.00 0.00 82 1016.8
20260902110015 61 176 0.0 5.2 0.00 0.00 0.00 82 1017.0
20260902104523 61 153 2.6 7.0 0.00 0.00 0.00 82 1017.2
20260902103017 61 199 1.7 6.1 0.00 0.00 0.00 81 1017.2
20260902101525 61 176 0.0 4.3 0.00 0.00 0.00 81 1017.2
20260902100011 61 134 1.7 5.2 0.00 0.00 0.00 80 1017.4
20260902094510 61 164 0.9 7.8 0.00 0.00 0.00 80 1017.3
20260902093008 61 166 1.7 9.6 0.00 0.00 0.00 79 1017.4
20260902091508 61 144 2.6 7.0 0.00 0.00 0.00 79 1017.3
20260902090006 61 144 1.7 5.2 0.00 0.00 0.00 79 1017.3
20260902084505 62 156 1.7 6.1 0.00 0.00 0.00 79 1017.2
20260902083003 62 138 3.5 7.8 0.00 0.00 0.00 79 1017.2
20260902081502 62 134 1.7 6.1 0.00 0.00 0.00 79 1017.1
20260902080113 62 177 1.7 6.1 0.00 0.00 0.00 79 1017.0
20260902074558 63 169 1.7 6.1 0.00 0.00 0.00 78 1016.9
20260902073056 63 160 1.7 9.6 0.00 0.00 0.00 78 1016.9
20260902071555 63 165 0.9 6.1 0.00 0.00 0.00 77 1016.9
20260902070053 63 192 2.6 9.6 0.00 0.00 0.00 77 1016.8
20260902064652 63 148 0.9 7.8 0.00 0.00 0.00 76 1016.7
20260902063052 63 175 1.7 7.8 0.00 0.00 0.00 76 1016.5
20260902061556 63 264 0.9 7.0 0.00 0.00 0.00 75 1016.8
20260902060050 63 225 1.7 7.8 0.00 0.00 0.00 75 1016.8
20260902054550 63 212 1.7 7.8 0.00 0.00 0.00 74 1016.9
20260902053055 63 229 2.6 7.8 0.00 0.00 0.00 72 1016.9
20260902051551 64 171 2.6 7.0 0.00 0.00 0.00 70 1016.8
20260902050049 64 207 0.0 7.8 0.00 0.00 0.00 68 1016.7
20260902044548 65 201 2.6 8.7 0.00 0.00 0.00 66 1016.8
20260902043050 65 219 1.7 7.0 0.00 0.00 0.00 65 1016.7
20260902041552 66 248 1.7 7.8 0.00 0.00 0.00 64 1016.5
20260902040047 66 254 1.7 8.7 0.00 0.00 0.00 62 1016.3
20260902034557 67 269 2.6 8.7 0.00 0.00 0.00 61 1016.1
20260902033059 68 191 0.9 7.0 0.00 0.00 0.00 59 1015.8
20260902031550 68 196 0.9 6.1 0.00 0.00 0.00 58 1015.6
20260902030044 69 220 1.7 8.7 0.00 0.00 0.00 56 1015.4
20260902024546 70 192 2.6 8.7 0.00 0.00 0.00 55 1015.2
20260902023043 70 173 3.5 10.4 0.00 0.00 0.00 53 1015.1
20260902021542 71 156 0.9 6.1 0.00 0.00 0.00 52 1015.0
20260902020042 72 192 1.7 6.1 0.00 0.00 0.00 50 1014.9
20260902014542 72 282 2.6 8.7 0.00 0.00 0.00 48 1014.9
20260902013040 73 269 1.7 9.6 0.00 0.00 0.00 46 1014.8
20260902011539 74 190 1.7 7.8 0.00 0.00 0.00 44 1014.6
20260902010039 76 194 2.6 9.6 0.00 0.00 0.00 42 1014.7
20260902004538 76 175 2.6 11.3 0.00 0.00 0.00 42 1014.6
20260902003037 77 178 6.1 14.8 0.00 0.00 0.00 41 1014.6
20260902001537 77 260 0.9 10.4 0.00 0.00 0.00 41 1014.6
20260902000039 78 163 2.6 10.4 0.00 0.00 0.00 40 1014.7
20260901234538 78 195 3.5 11.3 0.00 0.00 0.00 39 1014.8
20260901233042 78 259 3.5 9.6 0.00 0.00 0.00 39 1014.7
20260901231533 79 232 2.6 9.6 0.00 0.00 0.00 38 1014.9
20260901230034 79 175 2.6 7.8 0.00 0.00 0.00 40 1015.0
20260901224536 79 158 2.6 8.7 0.00 0.00 0.00 40 1015.0
20260901223030 79 254 4.3 12.2 0.00 0.00 0.00 39 1015.1
20260901221527 78 207 2.6 8.7 0.00 0.00 0.00 39 1015.3
20260901220026 78 167 2.6 9.6 0.00 0.00 0.00 40 1015.4
20260901214525 78 186 2.6 7.8 0.00 0.00 0.00 41 1015.6
20260901213027 78 146 3.5 11.3 0.00 0.00 0.00 42 1015.7
20260901211526 77 227 1.7 10.4 0.00 0.00 0.00 43 1015.7
20260901210021 77 210 4.3 13.0 0.00 0.00 0.00 44 1015.8
20260901204519 77 173 3.5 10.4 0.00 0.00 0.00 43 1015.8
20260901203020 77 160 3.5 8.7 0.00 0.00 0.00 43 1016.1
20260901201514 75 175 3.5 8.7 0.00 0.00 0.00 47 1016.3
20260901200013 75 237 4.3 8.7 0.00 0.00 0.00 46 1016.3